RADIO ROSTO (RS-15)

Last updated on Sat Apr 13 2024 01:02:57 GMT+0100 (British Summer Time)

1 23439U 94085A 24103.57207656 -.00000039 00000+0 10090-3 0 9990 2 23439 64.8146 149.8829 0151987 156.2054 204.5991 11.27576344206195
UTC large
Height (km)
Speed (km/s)
/
Latitude / Longitude
Inclination (degrees)
Orbital Period (minutes)
Azimuth
Elevation
Range (km)
Doppler Factor

Next 0 passes for location: London (51.5072 / 0.1276)

Sorry there are no passes over London.